LGL9514 EDDH-ELLX

Flight info

Callsign LGL9514
Flight time 0h 56m
Altitude 38000
Route HABFU1G/33 HABFU Y348 MAWEQ DCT ABAMI Z717 NEREL/N0363F240 T855 LNO
Aircraft B738/M-SDE2E3FGHIRWXY/LB1

Departure

Time 2026-04-21 09:17
Airport Hamburg Helmut Schmidt Airport (EDDH)

Arrival

Time 2026-04-21 10:13
Airport Luxembourg-Findel International Airport (ELLX)
Time Latitude Longitude Altitude Speed Heading
2026-04-21 07:53 53.62843 10.00213 45 ft 0 kts 62°
2026-04-21 07:58 53.62843 10.00212 47 ft 0 kts 62°
2026-04-21 08:18 53.62843 10.00211 47 ft 0 kts 62°
2026-04-21 08:20 53.62842 10.00211 47 ft 0 kts 62°
2026-04-21 08:39 53.62842 10.00210 47 ft 0 kts 62°
2026-04-21 08:58 53.62842 10.00209 47 ft 0 kts 62°
2026-04-21 09:12 53.62832 10.00178 47 ft 4 kts 55°
2026-04-21 09:12 53.62815 10.00144 45 ft 4 kts 38°
2026-04-21 09:12 53.62792 10.00124 47 ft 4 kts 359°
2026-04-21 09:12 53.62779 10.00129 45 ft 1 kts 333°
2026-04-21 09:13 53.62777 10.00130 46 ft 1 kts 333°
2026-04-21 09:14 53.62778 10.00129 45 ft 1 kts 333°
2026-04-21 09:14 53.62813 10.00099 47 ft 12 kts 333°
2026-04-21 09:15 53.62833 10.00083 47 ft 0 kts 333°
2026-04-21 09:15 53.62843 10.00071 47 ft 6 kts 319°
2026-04-21 09:15 53.62843 9.99949 45 ft 14 kts 241°
2026-04-21 09:16 53.62827 9.99785 41 ft 16 kts 313°
2026-04-21 09:16 53.63020 9.99612 44 ft 62 kts 333°
2026-04-21 09:16 53.63603 9.99111 44 ft 124 kts 333°
2026-04-21 09:16 53.64514 9.98313 128 ft 164 kts 336°
2026-04-21 09:17 53.65513 9.97426 936 ft 157 kts 337°
2026-04-21 09:17 53.66538 9.96542 1437 ft 178 kts 336°
2026-04-21 09:17 53.67692 9.95529 1924 ft 195 kts 336°
2026-04-21 09:17 53.68910 9.94466 2671 ft 197 kts 337°
2026-04-21 09:18 53.70094 9.93393 3551 ft 192 kts 338°
2026-04-21 09:18 53.71212 9.91913 3850 ft 223 kts 306°
2026-04-21 09:18 53.71629 9.89295 4108 ft 249 kts 265°
2026-04-21 09:18 53.71078 9.86422 4376 ft 270 kts 247°
2026-04-21 09:19 53.70372 9.83399 4941 ft 281 kts 249°
2026-04-21 09:19 53.69699 9.80275 5676 ft 285 kts 250°
2026-04-21 09:19 53.69049 9.77114 6495 ft 286 kts 251°
2026-04-21 09:19 53.68408 9.73920 7255 ft 289 kts 252°
2026-04-21 09:20 53.67768 9.70675 7993 ft 293 kts 251°
2026-04-21 09:20 53.67120 9.67385 8723 ft 298 kts 251°
2026-04-21 09:20 53.66458 9.64038 9498 ft 303 kts 251°
2026-04-21 09:20 53.65781 9.60660 10287 ft 307 kts 248°
2026-04-21 09:21 53.64634 9.57608 10773 ft 318 kts 221°
2026-04-21 09:21 53.62755 9.55465 10999 ft 336 kts 206°
2026-04-21 09:21 53.60651 9.53566 11516 ft 347 kts 204°
2026-04-21 09:21 53.58501 9.51666 12260 ft 351 kts 204°
2026-04-21 09:22 53.56295 9.49877 13040 ft 354 kts 200°
2026-04-21 09:22 53.54026 9.48214 13817 ft 358 kts 199°
2026-04-21 09:22 53.51717 9.46574 14547 ft 363 kts 199°
2026-04-21 09:22 53.49376 9.44915 15287 ft 367 kts 199°
2026-04-21 09:23 53.47019 9.43233 16051 ft 370 kts 199°
2026-04-21 09:23 53.44639 9.41522 16796 ft 374 kts 199°
2026-04-21 09:23 53.42231 9.39782 17531 ft 379 kts 199°
2026-04-21 09:23 53.39796 9.38017 18259 ft 383 kts 199°
2026-04-21 09:24 53.37336 9.36230 18960 ft 388 kts 199°
2026-04-21 09:24 53.34849 9.34424 19589 ft 392 kts 199°
2026-04-21 09:24 53.32335 9.32598 20222 ft 396 kts 199°
2026-04-21 09:24 53.29828 9.30779 20853 ft 399 kts 199°
2026-04-21 09:25 53.27269 9.28925 21489 ft 403 kts 199°
2026-04-21 09:25 53.24647 9.27028 22121 ft 407 kts 199°
2026-04-21 09:25 53.22073 9.25168 22702 ft 411 kts 199°
2026-04-21 09:25 53.19408 9.23244 23316 ft 415 kts 199°
2026-04-21 09:26 53.16747 9.21326 23883 ft 418 kts 199°
2026-04-21 09:26 53.14105 9.19424 24398 ft 421 kts 199°
2026-04-21 09:26 53.11409 9.17486 24910 ft 424 kts 199°
2026-04-21 09:26 53.08695 9.15537 25396 ft 427 kts 199°
2026-04-21 09:27 53.05957 9.13574 25867 ft 430 kts 199°
2026-04-21 09:27 53.03200 9.11600 26331 ft 432 kts 199°
2026-04-21 09:27 53.00428 9.09619 26812 ft 435 kts 199°
2026-04-21 09:27 52.97639 9.07628 27254 ft 438 kts 199°
2026-04-21 09:28 52.94827 9.05624 27695 ft 441 kts 199°
2026-04-21 09:28 52.91998 9.03610 28130 ft 444 kts 199°
2026-04-21 09:28 52.89149 9.01585 28553 ft 447 kts 199°
2026-04-21 09:28 52.86281 8.99550 28918 ft 451 kts 199°
2026-04-21 09:29 52.83385 8.97498 29321 ft 454 kts 199°
2026-04-21 09:29 52.80471 8.95435 29741 ft 456 kts 199°
2026-04-21 09:29 52.77559 8.93375 30275 ft 455 kts 199°
2026-04-21 09:29 52.74655 8.91322 30794 ft 453 kts 199°
2026-04-21 09:30 52.71764 8.89283 31244 ft 451 kts 199°
2026-04-21 09:30 52.68876 8.87250 31654 ft 451 kts 199°
2026-04-21 09:30 52.65985 8.85219 32087 ft 451 kts 200°
2026-04-21 09:30 52.63115 8.83204 32616 ft 447 kts 200°
2026-04-21 09:31 52.60261 8.81204 33108 ft 445 kts 201°
2026-04-21 09:31 52.57413 8.79211 33522 ft 444 kts 201°
2026-04-21 09:31 52.54569 8.77225 33912 ft 444 kts 201°
2026-04-21 09:31 52.51726 8.75241 34306 ft 444 kts 201°
2026-04-21 09:32 52.45982 8.71243 34329 ft 450 kts 201°
2026-04-21 09:32 52.40264 8.67270 34319 ft 444 kts 202°
2026-04-21 09:33 52.34577 8.63328 34331 ft 444 kts 202°
2026-04-21 09:33 52.28907 8.59306 34316 ft 445 kts 207°
2026-04-21 09:34 52.23970 8.53354 34320 ft 446 kts 224°
2026-04-21 09:34 52.19534 8.46283 34317 ft 447 kts 225°
2026-04-21 09:35 52.15061 8.39149 34311 ft 447 kts 225°
2026-04-21 09:35 52.10618 8.32159 34305 ft 447 kts 224°
2026-04-21 09:36 52.06136 8.25167 34309 ft 447 kts 224°
2026-04-21 09:36 52.01647 8.18195 34310 ft 446 kts 224°
2026-04-21 09:37 51.97164 8.11250 34315 ft 445 kts 225°
2026-04-21 09:37 51.92692 8.04342 34298 ft 442 kts 225°
2026-04-21 09:38 51.90482 8.00936 34088 ft 437 kts 225°
2026-04-21 09:38 51.88297 7.97572 33804 ft 429 kts 224°
2026-04-21 09:38 51.86148 7.94267 33406 ft 425 kts 224°
2026-04-21 09:38 51.84013 7.90989 33034 ft 421 kts 224°
2026-04-21 09:39 51.81901 7.87749 32643 ft 418 kts 224°
2026-04-21 09:39 51.79798 7.84528 32263 ft 415 kts 224°
2026-04-21 09:39 51.77712 7.81339 31892 ft 412 kts 224°
2026-04-21 09:39 51.75637 7.78170 31521 ft 409 kts 224°
2026-04-21 09:40 51.73577 7.75028 31143 ft 406 kts 224°
2026-04-21 09:40 51.71528 7.71907 30783 ft 404 kts 224°
2026-04-21 09:40 51.69494 7.68810 30428 ft 401 kts 224°
2026-04-21 09:40 51.67472 7.65729 30006 ft 399 kts 224°
2026-04-21 09:41 51.65463 7.62677 29604 ft 395 kts 224°
2026-04-21 09:41 51.63471 7.59655 29222 ft 392 kts 224°
2026-04-21 09:41 51.61495 7.56665 28847 ft 388 kts 224°
2026-04-21 09:41 51.59537 7.53705 28472 ft 385 kts 224°
2026-04-21 09:42 51.57592 7.50769 28104 ft 382 kts 224°
2026-04-21 09:42 51.55663 7.47861 27727 ft 379 kts 224°
2026-04-21 09:42 51.53748 7.44977 27368 ft 376 kts 224°
2026-04-21 09:42 51.51843 7.42111 26999 ft 374 kts 224°
2026-04-21 09:43 51.49952 7.39269 26638 ft 371 kts 224°
2026-04-21 09:43 51.48071 7.36444 26281 ft 369 kts 224°
2026-04-21 09:43 51.46200 7.33638 25923 ft 367 kts 223°
2026-04-21 09:43 51.44339 7.30854 25585 ft 365 kts 223°
2026-04-21 09:44 51.42507 7.28057 25249 ft 363 kts 227°
2026-04-21 09:44 51.40935 7.25000 25045 ft 357 kts 234°
2026-04-21 09:44 51.39451 7.21784 24844 ft 364 kts 234°
2026-04-21 09:44 51.37943 7.18464 24616 ft 372 kts 234°
2026-04-21 09:45 51.36414 7.15104 24397 ft 374 kts 234°
2026-04-21 09:45 51.34884 7.11770 24157 ft 371 kts 234°
2026-04-21 09:45 51.33331 7.08408 23929 ft 369 kts 234°
2026-04-21 09:45 51.31829 7.05176 23687 ft 366 kts 234°
2026-04-21 09:46 51.30312 7.01922 23438 ft 364 kts 234°
2026-04-21 09:46 51.28804 6.98697 23210 ft 361 kts 233°
2026-04-21 09:46 51.27305 6.95497 23000 ft 358 kts 233°
2026-04-21 09:46 51.25816 6.92322 22783 ft 356 kts 233°
2026-04-21 09:47 51.24337 6.89170 22565 ft 355 kts 233°
2026-04-21 09:47 51.22858 6.86025 22352 ft 354 kts 233°
2026-04-21 09:47 51.21382 6.82890 22134 ft 354 kts 233°
2026-04-21 09:47 51.19905 6.79756 21923 ft 353 kts 233°
2026-04-21 09:48 51.18425 6.76617 21715 ft 354 kts 233°
2026-04-21 09:48 51.16947 6.73489 21495 ft 354 kts 233°
2026-04-21 09:48 51.15465 6.70354 21278 ft 354 kts 233°
2026-04-21 09:48 51.13983 6.67222 21073 ft 354 kts 233°
2026-04-21 09:49 51.12501 6.64094 20833 ft 354 kts 233°
2026-04-21 09:49 51.11020 6.60974 20623 ft 353 kts 233°
2026-04-21 09:49 51.09539 6.57859 20409 ft 352 kts 233°
2026-04-21 09:49 51.07992 6.54847 20202 ft 352 kts 227°
2026-04-21 09:50 51.06148 6.52341 19976 ft 348 kts 211°
2026-04-21 09:50 51.05464 6.51720 19905 ft 346 kts 206°
2026-04-21 09:50 50.99402 6.48912 18844 ft 339 kts 193°
2026-04-21 09:51 50.97135 6.47934 18566 ft 337 kts 194°
2026-04-21 09:51 50.94883 6.46923 18303 ft 335 kts 194°
2026-04-21 09:51 50.92644 6.45914 18053 ft 335 kts 194°
2026-04-21 09:51 50.90405 6.44912 17812 ft 333 kts 194°
2026-04-21 09:52 50.88210 6.43937 17573 ft 332 kts 194°
2026-04-21 09:52 50.85988 6.42957 17356 ft 330 kts 194°
2026-04-21 09:52 50.83779 6.41988 17134 ft 329 kts 194°
2026-04-21 09:52 50.81579 6.41027 16914 ft 327 kts 194°
2026-04-21 09:53 50.79390 6.40074 16688 ft 326 kts 194°
2026-04-21 09:53 50.77208 6.39125 16463 ft 325 kts 193°
2026-04-21 09:53 50.75031 6.38180 16252 ft 324 kts 193°
2026-04-21 09:53 50.72859 6.37239 16028 ft 323 kts 193°
2026-04-21 09:54 50.70695 6.36302 15811 ft 322 kts 193°
2026-04-21 09:54 50.68537 6.35369 15590 ft 321 kts 193°
2026-04-21 09:54 50.66382 6.34437 15353 ft 321 kts 193°
2026-04-21 09:54 50.64231 6.33509 15152 ft 320 kts 193°
2026-04-21 09:55 50.62086 6.32584 14931 ft 320 kts 193°
2026-04-21 09:55 50.59939 6.31659 14712 ft 319 kts 193°
2026-04-21 09:55 50.57802 6.30740 14504 ft 318 kts 193°
2026-04-21 09:55 50.55665 6.29821 14284 ft 318 kts 193°
2026-04-21 09:56 50.53534 6.28905 14070 ft 318 kts 193°
2026-04-21 09:56 50.51399 6.27989 13824 ft 318 kts 193°
2026-04-21 09:56 50.49266 6.27074 13596 ft 317 kts 193°
2026-04-21 09:56 50.47137 6.26163 13382 ft 317 kts 193°
2026-04-21 09:57 50.45729 6.25560 13234 ft 316 kts 193°
2026-04-21 09:57 50.43606 6.24652 13016 ft 316 kts 193°
2026-04-21 09:57 50.41483 6.23744 12793 ft 316 kts 193°
2026-04-21 09:57 50.39371 6.22842 12576 ft 313 kts 193°
2026-04-21 09:58 50.37282 6.21950 12353 ft 310 kts 192°
2026-04-21 09:58 50.35218 6.21069 12154 ft 305 kts 192°
2026-04-21 09:58 50.33180 6.20201 11950 ft 302 kts 192°
2026-04-21 09:58 50.31161 6.19342 11748 ft 299 kts 192°
2026-04-21 09:59 50.29164 6.18494 11548 ft 297 kts 192°
2026-04-21 09:59 50.27176 6.17650 11353 ft 296 kts 191°
2026-04-21 09:59 50.25181 6.16805 11159 ft 298 kts 192°
2026-04-21 09:59 50.23173 6.15955 10957 ft 299 kts 192°
2026-04-21 10:00 50.21165 6.15105 10753 ft 299 kts 191°
2026-04-21 10:00 50.19160 6.14257 10549 ft 298 kts 191°
2026-04-21 10:00 50.17169 6.13414 10348 ft 294 kts 191°
2026-04-21 10:00 50.15205 6.12583 10145 ft 290 kts 191°
2026-04-21 10:01 50.13276 6.11767 9926 ft 285 kts 191°
2026-04-21 10:01 50.11373 6.10963 9722 ft 280 kts 191°
2026-04-21 10:01 50.09508 6.10177 9522 ft 276 kts 191°
2026-04-21 10:01 50.07657 6.09398 9339 ft 275 kts 191°
2026-04-21 10:02 50.03988 6.07859 8978 ft 275 kts 191°
2026-04-21 10:02 50.02120 6.07075 8786 ft 275 kts 191°
2026-04-21 10:02 50.00300 6.06312 8607 ft 274 kts 191°
2026-04-21 10:03 49.98463 6.05541 8425 ft 274 kts 191°
2026-04-21 10:03 49.96619 6.04770 8234 ft 275 kts 191°
2026-04-21 10:03 49.94776 6.03998 8045 ft 274 kts 191°
2026-04-21 10:03 49.92933 6.03228 7868 ft 274 kts 191°
2026-04-21 10:04 49.91092 6.02458 7682 ft 274 kts 191°
2026-04-21 10:04 49.89252 6.01689 7504 ft 274 kts 191°
2026-04-21 10:04 49.87409 6.00920 7312 ft 274 kts 191°
2026-04-21 10:04 49.85575 6.00154 7133 ft 273 kts 191°
2026-04-21 10:05 49.83747 5.99391 6936 ft 271 kts 191°
2026-04-21 10:05 49.81931 5.98635 6766 ft 270 kts 191°
2026-04-21 10:05 49.80120 5.97882 6590 ft 269 kts 191°
2026-04-21 10:05 49.78320 5.97133 6401 ft 267 kts 191°
2026-04-21 10:06 49.76525 5.96388 6201 ft 266 kts 191°
2026-04-21 10:06 49.74741 5.95647 6019 ft 265 kts 191°
2026-04-21 10:06 49.72968 5.94911 5839 ft 263 kts 191°
2026-04-21 10:06 49.71215 5.94075 5609 ft 264 kts 194°
2026-04-21 10:07 49.69472 5.93176 5343 ft 264 kts 194°
2026-04-21 10:07 49.67732 5.92268 5093 ft 263 kts 194°
2026-04-21 10:07 49.65997 5.91363 4835 ft 263 kts 194°
2026-04-21 10:07 49.64222 5.90993 4553 ft 256 kts 168°
2026-04-21 10:08 49.62596 5.91908 4303 ft 246 kts 146°
2026-04-21 10:08 49.61139 5.93285 4055 ft 245 kts 143°
2026-04-21 10:08 49.59711 5.94684 3883 ft 241 kts 143°
2026-04-21 10:08 49.58329 5.96045 3743 ft 232 kts 143°
2026-04-21 10:09 49.57037 5.97448 3551 ft 221 kts 131°
2026-04-21 10:09 49.56334 5.99427 3360 ft 207 kts 98°
2026-04-21 10:09 49.56157 6.01556 3230 ft 196 kts 94°
2026-04-21 10:09 49.56202 6.03585 3051 ft 185 kts 68°
2026-04-21 10:10 49.56829 6.05185 3030 ft 170 kts 59°
2026-04-21 10:10 49.57316 6.06750 2995 ft 152 kts 63°
2026-04-21 10:10 49.57821 6.08136 2860 ft 152 kts 61°
2026-04-21 10:10 49.58337 6.09516 2667 ft 143 kts 60°
2026-04-21 10:11 49.58797 6.10758 2465 ft 126 kts 62°
2026-04-21 10:11 49.59225 6.11915 2291 ft 122 kts 62°
2026-04-21 10:11 49.59649 6.13098 2103 ft 127 kts 63°
2026-04-21 10:11 49.60084 6.14264 1925 ft 125 kts 61°
2026-04-21 10:12 49.60523 6.15433 1714 ft 124 kts 62°
2026-04-21 10:12 49.60950 6.16588 1527 ft 126 kts 60°
2026-04-21 10:12 49.61382 6.17764 1363 ft 125 kts 59°
2026-04-21 10:12 49.61823 6.18942 1193 ft 128 kts 60°
2026-04-21 10:13 49.62235 6.20053 1216 ft 106 kts 60°
2026-04-21 10:13 49.62539 6.20869 1237 ft 59 kts 60°
2026-04-21 10:13 49.62663 6.21104 1233 ft 18 kts 37°
2026-04-21 10:13 49.62771 6.21208 1230 ft 18 kts 30°
2026-04-21 10:14 49.62830 6.21262 1227 ft 8 kts 31°
2026-04-21 10:14 49.62883 6.21311 1227 ft 9 kts 31°
2026-04-21 10:14 49.62948 6.21339 1227 ft 12 kts
2026-04-21 10:14 49.63009 6.21426 1227 ft 14 kts 63°
2026-04-21 10:15 49.63049 6.21556 1225 ft 13 kts 65°
2026-04-21 10:15 49.63088 6.21685 1224 ft 15 kts 62°
2026-04-21 10:15 49.63150 6.21767 1226 ft 12 kts 341°
2026-04-21 10:15 49.63222 6.21705 1229 ft 12 kts 328°
2026-04-21 10:16 49.63285 6.21700 1229 ft 10 kts 49°
2026-04-21 10:16 49.63317 6.21769 1229 ft 6 kts 37°
2026-04-21 10:16 49.63352 6.21755 1229 ft 3 kts 329°
2026-04-21 10:16 49.63363 6.21745 1229 ft 1 kts 330°
2026-04-21 10:17 49.63368 6.21740 1229 ft 1 kts 330°
2026-04-21 10:17 49.63369 6.21740 1229 ft 0 kts 330°